Wind_Speed
28 28 29 26 22 21 25 22 20 23 26 24 21 18 24 29 27 27 28 26 22 26 24 24 31 27 14 17 18 17 15 12 10 13 11 8 6 8 8 9 13 15 15
29 29 29 28 24 23 24 19 16 19 18 18 14 18 24 27 27 26 24 20 20 17 22 35 27 18 18 18 17 16 13 12 11 9 7 9 8 9 9 9 15 16 19
28 29 27 28 23 25 21 15 17 16 16 11 21 22 24 25 26 22 18 17 17 22 33 29 18 17 17 17 17 14 15 12 7 9 9 10 10 8 11 14 16 17 19
29 27 27 28 24 24 19 13 15 13 14 12 19 20 13 19 14 18 19 20 23 34 27 21 18 17 16 17 17 14 11 8 8 8 7 9 10 5 9 13 16 18 21
29 26 26 25 26 23 17 13 16 12 10 13 11 12 12 13 15 20 18 28 35 30 25 22 22 22 21 18 14 10 9 10 8 5 6 2 3 6 9 13 17 20 22
29 26 26 25 25 21 15 14 13 11 8 15 17 16 16 16 17 20 20 29 31 27 25 26 25 23 20 14 11 11 11 9 7 4 2 1 4 8 11 15 19 21 23
27 25 25 23 24 19 15 14 11 10 7 11 16 17 16 19 18 24 23 34 25 25 25 23 21 18 14 11 9 12 12 10 8 5 2 3 6 9 13 16 18 20 21
27 24 24 22 22 18 15 17 13 8 6 10 10 15 23 19 25 32 35 28 28 27 24 21 17 14 13 13 14 14 12 10 7 4 3 5 8 11 13 16 17 19 21
25 23 22 20 20 17 14 16 15 11 8 9 16 19 29 29 39 37 28 31 32 30 26 21 16 14 20 19 16 13 11 9 6 5 5 6 9 12 14 17 19 20 21
23 20 19 19 18 16 11 15 16 14 12 15 24 15 25 34 36 29 29 33 32 27 23 19 19 22 21 20 17 14 10 7 7 5 6 9 12 15 17 20 21 20 17
25 21 18 18 16 15 10 17 15 14 19 24 12 28 43 37 31 30 28 26 18 18 18 22 26 24 20 18 15 14 10 8 7 9 11 13 16 19 21 22 21 19 15
23 20 16 16 13 11 8 12 14 13 21 23 20 34 29 34 34 29 27 19 19 16 26 27 26 25 20 17 15 13 10 10 11 12 14 17 20 21 23 23 22 19 15
23 17 14 13 11 7 9 9 22 30 27 20 35 40 45 39 40 30 27 20 22 26 27 26 25 23 19 16 15 13 12 13 14 16 17 19 21 23 24 23 23 20 18
18 12 11 10 5 7 15 10 22 25 36 25 42 45 45 40 34 33 27 25 29 26 28 27 25 23 20 16 15 15 14 16 17 16 18 19 22 25 25 24 24 24 21
9 10 9 6 12 7 11 13 25 39 28 45 45 43 40 41 35 28 23 29 29 27 26 26 24 22 18 17 17 16 17 18 17 17 18 20 24 26 27 28 26 26 23
13 11 8 14 8 9 16 18 39 36 45 47 45 40 39 35 32 29 31 31 31 28 27 24 23 22 20 19 18 18 18 18 17 18 19 22 25 28 29 29 28 27 26
16 12 15 10 10 19 23 35 49 42 42 39 39 36 35 32 34 35 35 35 32 30 23 23 21 21 20 20 19 18 18 18 17 19 22 24 26 28 29 29 30 28 28
15 15 19 10 16 25 40 46 49 42 43 43 37 38 30 31 34 34 34 33 33 32 25 22 21 21 21 20 19 19 18 17 19 21 23 25 26 27 29 29 30 30 31
19 20 15 10 26 37 40 52 44 43 38 42 44 37 34 35 36 35 34 30 29 30 26 23 22 21 20 19 19 19 18 18 21 23 24 25 26 27 27 28 30 30 30
21 16 7 28 31 44 44 43 43 40 43 40 37 36 38 36 36 36 34 31 29 28 25 23 23 21 20 19 19 19 19 20 22 23 24 25 26 27 26 27 28 29 29
20 24 26 35 44 40 42 41 36 38 38 36 36 35 36 35 35 34 34 31 28 25 24 23 22 20 19 19 19 19 20 21 23 24 25 25 25 26 26 27 26 26 28
24 25 26 34 35 34 35 36 38 32 34 35 35 37 37 36 34 34 34 32 29 26 24 22 21 20 20 20 19 19 21 22 23 24 24 24 24 25 25 26 26 26 27
24 23 33 33 30 33 35 32 34 31 35 33 34 35 36 36 34 33 32 31 28 25 24 22 19 18 19 18 19 21 22 22 22 23 24 23 24 24 25 25 26 26 26
21 35 32 30 30 32 29 34 35 34 33 32 33 33 35 35 32 31 30 28 27 26 24 23 22 20 19 19 19 21 23 23 23 23 24 23 24 24 24 25 26 26 27
26 30 30 30 30 28 30 35 34 32 31 31 31 31 33 33 31 30 29 28 26 24 24 23 22 21 21 20 20 21 23 23 23 23 23 23 24 24 25 25 26 27 28
22 26 25 31 27 31 32 35 31 30 30 30 30 29 31 31 30 29 28 26 25 24 23 22 22 21 20 21 22 22 23 23 23 23 23 23 24 24 25 26 27 28 29
Wind_Direction
320 319 324 320 305 290 284 278 267 250 249 252 251 222 215 207 204 209 216 217 211 222 230 224 199 198 187 216 220 215 220 216 211 212 231 263 292 305 254 273 272 267 278
318 319 324 322 314 302 293 283 262 246 249 250 239 206 214 207 206 202 202 207 215 227 214 204 184 178 199 206 205 206 206 204 199 202 233 242 249 278 253 260 276 287 301
314 318 321 323 320 304 298 280 253 252 244 240 213 207 207 204 201 204 214 222 226 215 206 180 175 189 193 197 192 188 196 201 213 235 236 234 238 242 268 255 282 294 302
312 315 320 323 321 315 305 269 242 254 257 244 181 200 203 186 207 212 218 221 212 186 154 165 174 176 176 176 177 188 188 215 230 238 180 191 236 277 299 302 301 300 300
309 314 317 321 323 319 306 260 242 251 271 243 217 190 205 216 225 219 204 198 176 156 159 163 166 162 161 168 188 195 191 201 189 147 127 180 267 293 302 303 303 305 305
309 313 317 320 323 318 301 260 261 238 286 228 229 221 225 236 233 209 189 149 159 159 160 162 160 164 175 179 186 197 197 157 143 145 148 319 312 307 309 311 310 308 307
310 311 317 317 321 316 299 235 278 213 273 224 226 215 212 234 210 176 149 152 152 155 158 157 162 165 166 175 172 140 133 136 137 138 113 335 317 322 317 314 313 315 316
308 307 313 311 317 312 298 227 249 222 253 200 195 226 220 200 185 154 151 148 155 151 149 155 163 164 156 147 135 130 134 137 124 91 31 346 334 328 327 326 328 327 323
305 304 311 310 312 308 296 225 228 191 190 203 205 192 162 169 156 144 153 155 151 153 158 158 155 161 143 134 132 135 130 115 94 68 25 355 351 349 347 345 341 338 332
299 302 309 309 309 309 286 224 223 211 199 188 186 222 167 149 142 145 152 155 161 162 156 155 145 138 135 133 132 121 103 92 82 61 31 18 11 7 3 357 352 347 344
295 302 307 304 305 301 268 222 245 215 206 185 176 146 138 134 144 145 153 158 155 156 153 145 137 133 132 130 124 110 102 88 77 59 41 29 23 18 11 5 4 1 4
278 290 299 298 300 298 254 236 193 180 175 179 173 149 154 148 149 143 146 131 131 139 137 135 135 128 130 122 112 104 99 88 72 58 45 34 29 23 19 16 15 19 30
259 276 286 291 284 232 240 225 170 184 186 187 175 157 158 148 147 147 148 148 131 137 137 136 128 127 122 114 111 103 95 83 70 56 47 40 35 30 27 28 31 38 49
244 257 265 272 240 218 243 197 179 199 189 172 153 159 152 151 146 146 156 146 136 141 136 130 129 124 118 115 107 100 93 80 68 58 51 46 42 39 38 40 44 51 58
198 228 238 218 169 217 193 162 158 167 188 160 153 153 148 149 148 152 144 135 135 135 132 131 125 118 117 111 105 101 88 79 71 62 57 53 49 47 46 49 53 58 61
174 198 195 165 172 169 167 156 156 148 150 153 147 152 147 152 149 144 139 137 134 133 131 128 124 123 118 111 105 92 89 82 75 68 64 60 57 53 52 54 57 61 63
161 165 154 159 146 141 146 142 146 146 138 139 140 145 149 141 144 141 142 137 134 129 134 126 126 121 116 109 100 99 91 86 79 73 68 64 62 58 57 58 59 61 61
146 146 145 145 131 136 136 140 140 138 142 147 149 145 147 147 143 139 139 138 135 132 131 128 127 120 114 106 106 100 94 90 82 75 71 67 65 63 60 60 61 62 63
134 138 118 136 131 149 142 142 147 139 146 138 143 147 148 146 142 141 138 136 137 131 131 131 125 118 112 111 106 101 98 91 84 78 74 70 67 67 65 63 64 64 64
123 112 131 137 131 134 139 143 143 147 144 146 145 145 144 143 141 140 136 139 137 132 132 130 125 119 118 114 109 104 98 92 85 80 76 72 70 70 68 67 67 67 67
129 132 135 132 138 138 140 139 146 147 147 144 143 143 142 142 142 140 137 138 135 133 131 129 124 122 121 116 111 105 99 92 88 82 78 75 72 72 70 70 70 70 70
139 139 127 129 141 144 140 150 146 146 139 143 144 145 142 143 144 142 139 139 136 137 134 132 130 128 124 118 113 107 99 94 89 85 80 77 75 73 71 71 71 70 69
130 131 136 135 137 141 146 141 150 145 147 146 147 146 145 144 145 143 142 139 140 138 134 129 126 123 119 116 113 108 101 95 90 88 84 80 77 75 73 71 70 69 69
135 130 137 138 146 144 153 153 145 146 148 148 149 150 147 145 145 144 142 142 139 138 136 132 130 126 120 116 112 106 101 97 94 90 87 85 82 79 76 75 73 71 70
137 143 148 141 148 149 156 147 148 148 148 150 150 151 150 147 145 144 143 143 142 142 138 134 131 127 123 119 113 107 102 99 96 94 91 88 85 83 81 78 77 75 74
146 149 145 154 148 157 156 152 154 151 152 152 152 152 151 148 147 145 145 145 145 143 139 135 131 128 125 121 115 110 106 102 99 96 94 91 89 86 84 82 80 79 77
Height
3003 3000 2993 2990 2987 2984 2983 2981 2982 2984 2984 2985 2986 2988 2990 2996 3001 3006 3010 3015 3019 3024 3028 3032 3035 3038 3043 3049 3053 3056 3058 3061 3063 3064 3065 3065 3066 3066 3067 3066 3065 3063 3061
2998 2995 2989 2986 2981 2978 2975 2975 2976 2976 2977 2979 2981 2981 2988 2992 2995 3000 3005 3009 3014 3017 3021 3025 3029 3034 3042 3047 3051 3053 3056 3059 3060 3062 3062 3063 3065 3063 3064 3063 3061 3059 3056
2994 2989 2986 2982 2976 2973 2970 2971 2970 2971 2972 2975 2975 2980 2983 2987 2991 2996 3000 3005 3008 3013 3017 3020 3029 3036 3041 3045 3048 3052 3055 3057 3058 3060 3060 3061 3061 3060 3060 3059 3057 3055 3052
2988 2985 2982 2977 2973 2969 2967 2967 2967 2968 2968 2969 2971 2974 2971 2981 2986 2992 2997 3000 3003 3006 3012 3023 3031 3035 3040 3044 3047 3051 3053 3054 3055 3056 3057 3058 3059 3057 3056 3055 3053 3051 3048
2982 2980 2977 2974 2970 2965 2964 2963 2963 2964 2966 2967 2968 2974 2977 2982 2986 2989 2992 2996 2997 3007 3016 3024 3029 3035 3039 3044 3047 3048 3051 3052 3053 3054 3055 3056 3056 3055 3053 3051 3049 3046 3043
2976 2974 2971 2967 2964 2962 2961 2959 2960 2962 2964 2968 2970 2974 2977 2980 2983 2985 2988 2993 3002 3011 3017 3024 3029 3034 3039 3042 3044 3047 3049 3051 3053 3054 3055 3055 3054 3053 3051 3048 3045 3041 3038
2972 2969 2966 2962 2961 2958 2957 2958 2958 2961 2963 2965 2968 2971 2975 2977 2980 2980 2989 2995 3007 3014 3020 3026 3031 3035 3039 3042 3044 3047 3049 3052 3054 3055 3054 3053 3052 3050 3048 3046 3041 3037 3032
2968 2965 2962 2959 2957 2955 2954 2956 2958 2960 2963 2965 2966 2968 2970 2972 2978 2983 2993 3003 3011 3017 3023 3028 3032 3035 3038 3042 3046 3048 3051 3053 3054 3054 3054 3053 3052 3049 3046 3042 3037 3033 3028
2962 2960 2957 2955 2952 2951 2951 2952 2956 2960 2963 2965 2966 2968 2969 2977 2976 2988 2998 3005 3012 3017 3023 3028 3033 3036 3040 3043 3047 3051 3053 3053 3054 3054 3054 3053 3051 3047 3043 3039 3034 3029 3024
2957 2954 2953 2951 2947 2947 2947 2950 2953 2957 2962 2964 2964 2968 2971 2977 2988 2996 3003 3009 3013 3019 3024 3029 3033 3039 3043 3046 3050 3052 3054 3055 3055 3056 3055 3052 3049 3045 3042 3037 3031 3026 3021
2950 2950 2949 2946 2945 2944 2944 2948 2951 2954 2960 2962 2965 2970 2976 2984 2994 3002 3010 3014 3020 3023 3027 3031 3036 3041 3046 3049 3052 3053 3056 3057 3057 3056 3055 3052 3049 3045 3041 3036 3030 3025 3020
2943 2945 2944 2942 2942 2941 2941 2946 2949 2953 2958 2964 2968 2973 2980 2992 2997 3006 3013 3020 3022 3027 3030 3034 3039 3044 3049 3052 3054 3056 3059 3059 3058 3057 3056 3053 3049 3046 3041 3036 3030 3025 3021
2935 2940 2940 2939 2939 2939 2941 2944 2947 2953 2959 2965 2969 2975 2984 2992 3002 3010 3016 3022 3024 3029 3033 3039 3043 3047 3051 3054 3057 3060 3061 3061 3060 3059 3057 3055 3052 3048 3043 3037 3032 3027 3024
2930 2936 2937 2937 2937 2938 2938 2942 2946 2951 2957 2965 2971 2980 2990 2999 3006 3012 3018 3022 3027 3034 3038 3042 3047 3051 3054 3058 3060 3062 3063 3062 3062 3061 3060 3058 3055 3051 3046 3041 3035 3031 3028
2928 2932 2935 2936 2937 2937 2935 2939 2944 2950 2961 2967 2978 2987 2995 3002 3011 3018 3025 3028 3033 3039 3043 3048 3051 3054 3058 3061 3063 3065 3064 3065 3065 3064 3063 3061 3058 3054 3049 3044 3040 3036 3034
2926 2930 2934 2936 2937 2937 2938 2941 2950 2958 2967 2978 2987 2998 3002 3010 3016 3021 3027 3033 3038 3044 3048 3052 3054 3059 3062 3064 3066 3067 3068 3068 3069 3068 3067 3064 3061 3057 3053 3049 3045 3043 3040
2926 2931 2933 2937 2936 2938 2942 2948 2955 2965 2977 2985 2995 3004 3011 3015 3020 3025 3031 3036 3042 3046 3054 3056 3060 3063 3066 3067 3068 3071 3072 3072 3073 3071 3069 3067 3064 3062 3059 3056 3052 3049 3046
2930 2934 2939 2940 2941 2945 2949 2957 2967 2975 2982 2989 3000 3009 3015 3021 3026 3031 3037 3042 3045 3049 3057 3061 3064 3067 3069 3070 3073 3075 3076 3076 3076 3074 3072 3071 3069 3067 3065 3062 3058 3056 3053
2936 2941 2944 2944 2945 2953 2959 2967 2976 2983 2990 2995 3001 3009 3017 3024 3029 3036 3041 3048 3052 3054 3060 3064 3068 3071 3072 3075 3078 3079 3080 3080 3079 3078 3077 3076 3074 3072 3070 3068 3065 3062 3059
2943 2947 2950 2951 2954 2962 2969 2977 2985 2991 2996 3003 3010 3017 3021 3029 3034 3040 3045 3051 3056 3060 3064 3069 3071 3074 3077 3080 3082 3083 3084 3083 3083 3082 3082 3080 3079 3077 3076 3074 3072 3069 3068
2950 2953 2954 2959 2964 2971 2978 2986 2992 2998 3004 3010 3016 3023 3028 3035 3040 3046 3050 3055 3061 3065 3069 3073 3076 3079 3082 3084 3086 3087 3087 3087 3087 3086 3086 3086 3084 3083 3082 3080 3078 3076 3074
2957 2960 2963 2968 2974 2979 2986 2992 2999 3006 3012 3018 3022 3027 3033 3039 3046 3050 3054 3059 3064 3069 3073 3077 3080 3083 3086 3088 3090 3090 3090 3091 3091 3091 3091 3091 3090 3089 3087 3086 3084 3082 3080
2963 2967 2972 2977 2982 2987 2993 3000 3007 3012 3018 3023 3029 3034 3038 3044 3050 3055 3059 3064 3069 3073 3077 3081 3086 3088 3091 3092 3093 3094 3094 3095 3095 3095 3095 3095 3095 3094 3093 3092 3090 3088 3086
2970 2974 2979 2984 2990 2995 3001 3006 3012 3018 3024 3030 3035 3040 3044 3049 3055 3059 3064 3069 3073 3078 3082 3085 3089 3092 3095 3097 3098 3098 3098 3099 3100 3100 3100 3100 3100 3100 3099 3098 3096 3094 3093
2977 2981 2986 2991 2996 3001 3006 3013 3019 3023 3029 3035 3040 3045 3050 3054 3059 3064 3069 3074 3078 3083 3086 3090 3093 3096 3099 3101 3101 3102 3103 3103 3104 3105 3105 3105 3106 3105 3105 3104 3103 3101 3100
2983 2987 2991 2996 3000 3006 3012 3018 3023 3029 3035 3039 3045 3050 3055 3059 3064 3069 3074 3078 3083 3087 3091 3094 3097 3101 3103 3104 3105 3106 3107 3108 3109 3110 3110 3111 3111 3111 3111 3110 3109 3108 3107